EWG2XW EGLC-EDXW

Flight info

Callsign EWG2XW
Flight time 1h 4m
Altitude 35000
Route ODUKU M84 CLN P44 SOMVA DCT MAVAS DCT TULIP Y12 SPY N873 HUNQI DCT ROCZO DCT OLDIP
Aircraft A320/M-SDE3FGHIRWY/LB1

Departure

Time 2026-05-08 09:43
Airport London City Airport (EGLC)

Arrival

Time 2026-05-08 10:47
Airport Westerland Sylt Airport (EDXW)
Time Latitude Longitude Altitude Speed Heading
2026-05-08 09:17 51.50413 0.05131 30 ft 0 kts 324°
2026-05-08 09:35 51.50416 0.05132 30 ft 1 kts 354°
2026-05-08 09:35 51.50431 0.05139 30 ft 4 kts
2026-05-08 09:36 51.50451 0.05116 30 ft 5 kts 292°
2026-05-08 09:36 51.50457 0.05058 30 ft 5 kts 286°
2026-05-08 09:36 51.50462 0.05001 30 ft 6 kts 274°
2026-05-08 09:36 51.50464 0.04929 30 ft 7 kts 272°
2026-05-08 09:37 51.50467 0.04843 30 ft 8 kts 273°
2026-05-08 09:37 51.50470 0.04749 30 ft 9 kts 273°
2026-05-08 09:37 51.50472 0.04649 30 ft 9 kts 272°
2026-05-08 09:37 51.50476 0.04544 30 ft 10 kts 273°
2026-05-08 09:38 51.50491 0.04455 30 ft 4 kts 318°
2026-05-08 09:38 51.50493 0.04453 30 ft 0 kts 321°
2026-05-08 09:41 51.50529 0.04441 30 ft 8 kts
2026-05-08 09:41 51.50552 0.04456 30 ft 2 kts 53°
2026-05-08 09:41 51.50555 0.04480 30 ft 4 kts 81°
2026-05-08 09:42 51.50555 0.04528 30 ft 0 kts 92°
2026-05-08 09:42 51.50542 0.04915 30 ft 77 kts 93°
2026-05-08 09:42 51.50505 0.06137 123 ft 131 kts 93°
2026-05-08 09:43 51.50472 0.07602 852 ft 132 kts 94°
2026-05-08 09:43 51.50444 0.09094 1563 ft 137 kts 94°
2026-05-08 09:43 51.50520 0.10699 2056 ft 154 kts 79°
2026-05-08 09:43 51.50982 0.12357 2479 ft 173 kts 58°
2026-05-08 09:44 51.51899 0.13743 2891 ft 191 kts 34°
2026-05-08 09:44 51.53154 0.14728 3014 ft 209 kts 27°
2026-05-08 09:44 51.54503 0.15756 3005 ft 220 kts 30°
2026-05-08 09:44 51.55667 0.17331 3002 ft 222 kts 56°
2026-05-08 09:45 51.56444 0.19595 3010 ft 245 kts 66°
2026-05-08 09:45 51.57215 0.22140 3005 ft 258 kts 66°
2026-05-08 09:45 51.58001 0.24747 3007 ft 260 kts 66°
2026-05-08 09:45 51.58793 0.27357 3007 ft 260 kts 66°
2026-05-08 09:46 51.59586 0.29973 3050 ft 262 kts 66°
2026-05-08 09:46 51.60385 0.32607 3876 ft 266 kts 66°
2026-05-08 09:46 51.61193 0.35271 5022 ft 266 kts 65°
2026-05-08 09:46 51.62009 0.37964 6066 ft 269 kts 65°
2026-05-08 09:47 51.62835 0.40691 7039 ft 273 kts 65°
2026-05-08 09:47 51.63674 0.43470 7896 ft 280 kts 64°
2026-05-08 09:47 51.64535 0.46325 8739 ft 287 kts 64°
2026-05-08 09:47 51.65416 0.49251 9632 ft 293 kts 63°
2026-05-08 09:48 51.66317 0.52239 10389 ft 303 kts 63°
2026-05-08 09:48 51.67269 0.55408 10728 ft 327 kts 64°
2026-05-08 09:48 51.68292 0.58820 11068 ft 348 kts 64°
2026-05-08 09:48 51.69356 0.62382 11728 ft 356 kts 64°
2026-05-08 09:49 51.70439 0.66012 12507 ft 361 kts 64°
2026-05-08 09:49 51.71162 0.68434 13031 ft 364 kts 64°
2026-05-08 09:49 51.72265 0.72139 13836 ft 368 kts 65°
2026-05-08 09:49 51.73378 0.75870 14542 ft 371 kts 65°
2026-05-08 09:50 51.74505 0.79647 15243 ft 375 kts 65°
2026-05-08 09:50 51.75640 0.83453 15945 ft 379 kts 65°
2026-05-08 09:50 51.76791 0.87333 16632 ft 382 kts 65°
2026-05-08 09:50 51.77933 0.91199 17289 ft 387 kts 66°
2026-05-08 09:51 51.79101 0.95162 17951 ft 391 kts 66°
2026-05-08 09:51 51.80266 0.99119 18557 ft 395 kts 66°
2026-05-08 09:51 51.81456 1.03162 19123 ft 398 kts 66°
2026-05-08 09:51 51.82656 1.07239 19695 ft 401 kts 66°
2026-05-08 09:52 51.83859 1.11346 20259 ft 404 kts 65°
2026-05-08 09:52 51.85051 1.15424 20805 ft 407 kts 66°
2026-05-08 09:52 51.86239 1.19625 21384 ft 410 kts 66°
2026-05-08 09:52 51.87388 1.23851 21921 ft 413 kts 67°
2026-05-08 09:53 51.88535 1.28164 22466 ft 416 kts 67°
2026-05-08 09:53 51.89667 1.32451 22994 ft 419 kts 67°
2026-05-08 09:53 51.90823 1.36837 23504 ft 422 kts 67°
2026-05-08 09:53 51.91975 1.41196 23967 ft 425 kts 67°
2026-05-08 09:54 51.93154 1.45630 24393 ft 428 kts 67°
2026-05-08 09:54 51.94326 1.50026 24823 ft 430 kts 67°
2026-05-08 09:54 51.95523 1.54514 25228 ft 433 kts 67°
2026-05-08 09:54 51.96724 1.59024 25627 ft 435 kts 67°
2026-05-08 09:55 51.97916 1.63519 26021 ft 438 kts 67°
2026-05-08 09:55 51.99147 1.68096 26424 ft 441 kts 65°
2026-05-08 09:55 52.00578 1.72472 26804 ft 444 kts 62°
2026-05-08 09:55 52.02059 1.76907 27194 ft 446 kts 62°
2026-05-08 09:56 52.03543 1.81359 27583 ft 449 kts 62°
2026-05-08 09:56 52.05021 1.85793 27958 ft 451 kts 62°
2026-05-08 09:56 52.06522 1.90307 28326 ft 454 kts 62°
2026-05-08 09:56 52.08030 1.94856 28686 ft 456 kts 62°
2026-05-08 09:57 52.11041 2.03960 29353 ft 461 kts 62°
2026-05-08 09:57 52.12568 2.08587 29682 ft 464 kts 62°
2026-05-08 09:57 52.14097 2.13231 30021 ft 466 kts 62°
2026-05-08 09:58 52.15619 2.17870 30321 ft 468 kts 62°
2026-05-08 09:58 52.17161 2.22583 30586 ft 470 kts 62°
2026-05-08 09:58 52.18688 2.27257 30958 ft 470 kts 62°
2026-05-08 09:58 52.20228 2.31971 31336 ft 469 kts 62°
2026-05-08 09:59 52.21747 2.36623 31700 ft 469 kts 62°
2026-05-08 09:59 52.23281 2.41336 32073 ft 468 kts 62°
2026-05-08 09:59 52.24812 2.46048 32443 ft 468 kts 62°
2026-05-08 09:59 52.26338 2.50758 32813 ft 468 kts 62°
2026-05-08 10:00 52.27843 2.55417 33182 ft 467 kts 62°
2026-05-08 10:00 52.29349 2.60088 33555 ft 467 kts 62°
2026-05-08 10:00 52.30736 2.64899 33909 ft 467 kts 69°
2026-05-08 10:00 52.31725 2.69956 34246 ft 466 kts 75°
2026-05-08 10:01 52.32620 2.75076 34541 ft 466 kts 75°
2026-05-08 10:01 52.33506 2.80126 34825 ft 466 kts 74°
2026-05-08 10:01 52.34404 2.85240 35073 ft 467 kts 74°
2026-05-08 10:01 52.35295 2.90319 35145 ft 467 kts 74°
2026-05-08 10:02 52.37081 3.00556 35144 ft 466 kts 75°
2026-05-08 10:02 52.38845 3.10787 35149 ft 466 kts 75°
2026-05-08 10:03 52.39658 3.21258 35133 ft 464 kts 92°
2026-05-08 10:03 52.39237 3.31805 35138 ft 464 kts 95°
2026-05-08 10:04 52.38769 3.42345 35142 ft 464 kts 95°
2026-05-08 10:04 52.38305 3.52873 35143 ft 464 kts 95°
2026-05-08 10:05 52.37837 3.63414 35145 ft 464 kts 96°
2026-05-08 10:05 52.37342 3.73938 35143 ft 464 kts 96°
2026-05-08 10:06 52.37075 3.84492 35149 ft 465 kts 86°
2026-05-08 10:06 52.38405 3.94847 35142 ft 466 kts 74°
2026-05-08 10:07 52.40222 4.05046 35147 ft 467 kts 74°
2026-05-08 10:07 52.42018 4.15266 35146 ft 467 kts 75°
2026-05-08 10:08 52.43795 4.25490 35149 ft 467 kts 75°
2026-05-08 10:08 52.45565 4.35719 35145 ft 467 kts 75°
2026-05-08 10:09 52.47333 4.45955 35146 ft 466 kts 75°
2026-05-08 10:09 52.49097 4.56216 35147 ft 466 kts 75°
2026-05-08 10:10 52.50841 4.66445 35139 ft 466 kts 75°
2026-05-08 10:10 52.52579 4.76744 35145 ft 466 kts 75°
2026-05-08 10:11 52.54933 4.86567 35147 ft 466 kts 59°
2026-05-08 10:11 52.58751 4.95192 35154 ft 466 kts 51°
2026-05-08 10:12 52.62750 5.03519 35157 ft 466 kts 51°
2026-05-08 10:12 52.66756 5.11895 35161 ft 465 kts 51°
2026-05-08 10:13 52.70754 5.20303 35165 ft 465 kts 51°
2026-05-08 10:13 52.74710 5.28650 35163 ft 465 kts 51°
2026-05-08 10:14 52.78690 5.37063 35166 ft 464 kts 51°
2026-05-08 10:14 52.82662 5.45492 35157 ft 464 kts 51°
2026-05-08 10:15 52.86599 5.53878 35157 ft 464 kts 52°
2026-05-08 10:15 52.90551 5.62320 35154 ft 464 kts 52°
2026-05-08 10:16 52.94515 5.70807 35157 ft 464 kts 52°
2026-05-08 10:16 52.98447 5.79257 35157 ft 464 kts 52°
2026-05-08 10:17 53.02355 5.87701 35164 ft 464 kts 52°
2026-05-08 10:17 53.06289 5.96220 35163 ft 464 kts 52°
2026-05-08 10:18 53.10209 6.04739 35171 ft 464 kts 52°
2026-05-08 10:18 53.14125 6.13265 35168 ft 463 kts 52°
2026-05-08 10:19 53.18045 6.21824 35170 ft 463 kts 52°
2026-05-08 10:20 53.23890 6.34677 35174 ft 463 kts 52°
2026-05-08 10:20 53.27788 6.43277 35176 ft 463 kts 52°
2026-05-08 10:21 53.31668 6.51863 35178 ft 463 kts 52°
2026-05-08 10:21 53.35715 6.60217 35181 ft 462 kts 43°
2026-05-08 10:22 53.40439 6.67494 35186 ft 461 kts 41°
2026-05-08 10:22 53.45160 6.74776 35198 ft 461 kts 41°
2026-05-08 10:23 53.49871 6.82072 35197 ft 460 kts 41°
2026-05-08 10:23 53.54581 6.89368 35202 ft 460 kts 41°
2026-05-08 10:24 53.59338 6.96562 35201 ft 460 kts 39°
2026-05-08 10:24 53.64248 7.03459 35203 ft 459 kts 38°
2026-05-08 10:25 53.69186 7.10308 35207 ft 459 kts 38°
2026-05-08 10:25 53.74075 7.17254 35213 ft 459 kts 39°
2026-05-08 10:26 53.78926 7.24266 35217 ft 459 kts 39°
2026-05-08 10:26 53.83759 7.31304 35059 ft 458 kts 39°
2026-05-08 10:26 53.86157 7.34859 34818 ft 458 kts 43°
2026-05-08 10:27 53.88335 7.38799 34584 ft 457 kts 47°
2026-05-08 10:27 53.90454 7.42818 34350 ft 457 kts 47°
2026-05-08 10:27 53.91853 7.45480 34192 ft 456 kts 47°
2026-05-08 10:28 53.94020 7.49479 33912 ft 456 kts 46°
2026-05-08 10:28 53.96145 7.53473 33639 ft 456 kts 47°
2026-05-08 10:28 53.98242 7.57507 33373 ft 456 kts 47°
2026-05-08 10:28 54.00327 7.61569 33099 ft 456 kts 48°
2026-05-08 10:29 54.02411 7.65637 32546 ft 456 kts 48°
2026-05-08 10:29 54.04522 7.69739 31362 ft 464 kts 47°
2026-05-08 10:29 54.06659 7.73868 30326 ft 467 kts 47°
2026-05-08 10:29 54.08830 7.78049 29230 ft 469 kts 47°
2026-05-08 10:30 54.10964 7.82157 28737 ft 458 kts 47°
2026-05-08 10:30 54.12357 7.84842 28242 ft 455 kts 48°
2026-05-08 10:30 54.14435 7.88852 27548 ft 449 kts 48°
2026-05-08 10:30 54.16499 7.92813 26851 ft 444 kts 47°
2026-05-08 10:31 54.18611 7.96622 26143 ft 440 kts 45°
2026-05-08 10:31 54.20773 8.00308 25437 ft 437 kts 44°
2026-05-08 10:31 54.22956 8.03910 24734 ft 434 kts 43°
2026-05-08 10:31 54.25132 8.07473 24036 ft 432 kts 43°
2026-05-08 10:32 54.27285 8.11031 23292 ft 429 kts 44°
2026-05-08 10:32 54.29405 8.14586 22654 ft 424 kts 44°
2026-05-08 10:32 54.31487 8.18118 22045 ft 419 kts 44°
2026-05-08 10:32 54.33541 8.21625 21467 ft 413 kts 45°
2026-05-08 10:33 54.35563 8.25089 20901 ft 408 kts 45°
2026-05-08 10:33 54.37554 8.28513 20369 ft 403 kts 45°
2026-05-08 10:33 54.39523 8.31904 19830 ft 399 kts 45°
2026-05-08 10:33 54.41471 8.35260 19305 ft 395 kts 45°
2026-05-08 10:34 54.43401 8.38579 18780 ft 391 kts 45°
2026-05-08 10:34 54.45321 8.41883 18206 ft 389 kts 45°
2026-05-08 10:34 54.47222 8.45160 17648 ft 385 kts 45°
2026-05-08 10:34 54.49105 8.48414 17100 ft 382 kts 45°
2026-05-08 10:35 54.50975 8.51654 16538 ft 380 kts 45°
2026-05-08 10:35 54.52832 8.54871 15980 ft 378 kts 45°
2026-05-08 10:35 54.54857 8.57708 15404 ft 376 kts 30°
2026-05-08 10:35 54.57267 8.59348 14838 ft 373 kts 12°
2026-05-08 10:36 54.59527 8.59697 14331 ft 371 kts 356°
2026-05-08 10:36 54.62042 8.58825 13698 ft 369 kts 339°
2026-05-08 10:36 54.64269 8.56655 13033 ft 368 kts 321°
2026-05-08 10:36 54.66000 8.53449 12382 ft 365 kts 303°
2026-05-08 10:37 54.67138 8.49611 11731 ft 351 kts 293°
2026-05-08 10:37 54.68116 8.45789 11093 ft 337 kts 293°
2026-05-08 10:37 54.69029 8.42234 10795 ft 316 kts 293°
2026-05-08 10:37 54.69889 8.38881 10527 ft 297 kts 293°
2026-05-08 10:38 54.70724 8.35617 10177 ft 290 kts 293°
2026-05-08 10:38 54.71543 8.32417 10044 ft 290 kts 294°
2026-05-08 10:38 54.72380 8.29248 9913 ft 290 kts 298°
2026-05-08 10:38 54.73554 8.26430 9778 ft 289 kts 314°
2026-05-08 10:39 54.75107 8.24215 9418 ft 290 kts 329°
2026-05-08 10:39 54.76926 8.22732 8944 ft 289 kts 339°
2026-05-08 10:39 54.78789 8.21428 8518 ft 286 kts 338°
2026-05-08 10:39 54.80616 8.20140 8019 ft 282 kts 338°
2026-05-08 10:40 54.82435 8.18854 7563 ft 283 kts 338°
2026-05-08 10:40 54.84263 8.17561 7021 ft 281 kts 338°
2026-05-08 10:40 54.86053 8.16288 6410 ft 276 kts 338°
2026-05-08 10:40 54.87818 8.15030 5940 ft 274 kts 338°
2026-05-08 10:41 54.89578 8.13773 5488 ft 272 kts 338°
2026-05-08 10:41 54.91324 8.12526 5048 ft 271 kts 338°
2026-05-08 10:41 54.93071 8.11276 4588 ft 272 kts 338°
2026-05-08 10:41 54.94818 8.10027 4146 ft 270 kts 338°
2026-05-08 10:42 54.96631 8.09291 3705 ft 268 kts 360°
2026-05-08 10:42 54.98445 8.09832 3259 ft 264 kts 23°
2026-05-08 10:42 54.99931 8.11528 3084 ft 244 kts 47°
2026-05-08 10:42 55.00926 8.13706 3019 ft 219 kts 56°
2026-05-08 10:43 55.01782 8.15792 2850 ft 206 kts 60°
2026-05-08 10:43 55.02211 8.18033 2614 ft 188 kts 90°
2026-05-08 10:43 55.01965 8.20162 2345 ft 175 kts 118°
2026-05-08 10:43 55.01218 8.21738 2099 ft 168 kts 143°
2026-05-08 10:44 55.00273 8.22904 1884 ft 165 kts 145°
2026-05-08 10:44 54.99368 8.24029 1686 ft 153 kts 144°
2026-05-08 10:44 54.98556 8.25044 1588 ft 138 kts 144°
2026-05-08 10:44 54.97858 8.25918 1528 ft 134 kts 144°
2026-05-08 10:45 54.97104 8.26861 1366 ft 133 kts 144°
2026-05-08 10:45 54.96360 8.27786 1160 ft 131 kts 145°
2026-05-08 10:45 54.95619 8.28703 936 ft 130 kts 146°
2026-05-08 10:45 54.94879 8.29622 750 ft 132 kts 146°
2026-05-08 10:46 54.94126 8.30553 591 ft 133 kts 146°
2026-05-08 10:46 54.93384 8.31483 453 ft 130 kts 146°
2026-05-08 10:46 54.92650 8.32399 296 ft 131 kts 147°
2026-05-08 10:46 54.91912 8.33324 97 ft 131 kts 147°
2026-05-08 10:47 54.91238 8.34149 55 ft 95 kts 147°
2026-05-08 10:47 54.90921 8.34537 55 ft 34 kts 144°
2026-05-08 10:47 54.90734 8.34772 54 ft 33 kts 144°
2026-05-08 10:47 54.90616 8.34914 56 ft 8 kts 156°
2026-05-08 10:48 54.90569 8.34892 56 ft 5 kts 217°
2026-05-08 10:48 54.90524 8.34822 57 ft 10 kts 222°
2026-05-08 10:48 54.90477 8.34748 56 ft 9 kts 222°
2026-05-08 10:48 54.90409 8.34639 54 ft 17 kts 223°
2026-05-08 10:49 54.90317 8.34485 56 ft 19 kts 232°
2026-05-08 10:49 54.90249 8.34266 54 ft 22 kts 254°
2026-05-08 10:49 54.90239 8.33989 57 ft 24 kts 276°
2026-05-08 10:49 54.90267 8.33684 58 ft 27 kts 285°
2026-05-08 10:50 54.90369 8.33405 54 ft 29 kts 316°
2026-05-08 10:50 54.90554 8.33251 55 ft 31 kts 353°
2026-05-08 10:50 54.90741 8.33221 55 ft 20 kts 354°
2026-05-08 10:50 54.90873 8.33172 53 ft 19 kts 337°
2026-05-08 10:51 54.90975 8.33117 52 ft 14 kts 13°
2026-05-08 10:51 54.91068 8.33178 55 ft 14 kts 11°
2026-05-08 10:51 54.91161 8.33180 55 ft 13 kts 360°
2026-05-08 10:51 54.91246 8.33179 55 ft 12 kts
2026-05-08 10:52 54.91303 8.33215 55 ft 6 kts 27°
2026-05-08 10:52 54.91342 8.33217 51 ft 5 kts 342°
2026-05-08 10:52 54.91355 8.33191 54 ft 1 kts 282°
2026-05-08 10:52 54.91353 8.33180 54 ft 1 kts 263°
2026-05-08 10:53 54.91351 8.33161 54 ft 2 kts 263°
2026-05-08 10:53 54.91352 8.33147 56 ft 1 kts 272°
2026-05-08 10:53 54.91352 8.33137 55 ft 1 kts 271°
2026-05-08 10:53 54.91352 8.33130 56 ft 0 kts 271°
2026-05-08 10:54 54.91352 8.33123 57 ft 2 kts 271°
2026-05-08 10:54 54.91352 8.33119 58 ft 0 kts 271°